QPF
0.00 0.00 0.01 0.03 0.04 0.03 0.02 0.02 0.01 0.01 0.01 0.03 0.03 0.04 0.05 0.06 0.06 0.05 0.04 0.05 0.03 0.03 0.04 0.04 0.03 0.03 0.03 0.01 0.02 0.08 0.10 0.08 0.02 0.02 0.03 0.01 0.00 0.00 0.00 0.00 0.00 0.00 0.00
0.00 0.00 0.00 0.00 0.01 0.01 0.01 0.01 0.01 0.02 0.03 0.03 0.02 0.04 0.09 0.12 0.13 0.11 0.09 0.07 0.04 0.03 0.05 0.08 0.11 0.10 0.09 0.07 0.07 0.15 0.18 0.14 0.06 0.08 0.13 0.10 0.07 0.02 0.00 0.00 0.00 0.00 0.00
0.00 0.00 0.00 0.00 0.00 0.01 0.01 0.02 0.02 0.04 0.07 0.11 0.18 0.24 0.28 0.23 0.16 0.11 0.09 0.07 0.06 0.06 0.09 0.14 0.17 0.13 0.14 0.13 0.14 0.17 0.20 0.15 0.08 0.07 0.14 0.15 0.15 0.13 0.03 0.00 0.00 0.00 0.00
0.00 0.00 0.00 0.01 0.00 0.00 0.00 0.01 0.02 0.05 0.11 0.26 0.47 0.60 0.53 0.36 0.20 0.13 0.11 0.08 0.08 0.09 0.12 0.13 0.15 0.16 0.16 0.17 0.14 0.10 0.15 0.16 0.09 0.09 0.10 0.09 0.12 0.15 0.13 0.06 0.01 0.00 0.00
0.00 0.00 0.00 0.01 0.01 0.01 0.01 0.01 0.02 0.07 0.15 0.33 0.58 0.76 0.82 0.71 0.51 0.35 0.22 0.16 0.14 0.15 0.15 0.16 0.17 0.16 0.17 0.17 0.14 0.11 0.12 0.12 0.09 0.10 0.10 0.09 0.09 0.07 0.14 0.16 0.08 0.02 0.00
0.00 0.00 0.00 0.01 0.02 0.01 0.02 0.02 0.04 0.08 0.14 0.26 0.43 0.60 0.75 0.80 0.72 0.57 0.42 0.29 0.22 0.20 0.21 0.21 0.20 0.19 0.18 0.17 0.14 0.09 0.08 0.07 0.07 0.06 0.05 0.06 0.06 0.07 0.12 0.15 0.15 0.09 0.02
0.00 0.00 0.01 0.01 0.02 0.02 0.02 0.03 0.05 0.08 0.12 0.19 0.27 0.38 0.46 0.55 0.56 0.51 0.40 0.31 0.25 0.24 0.24 0.22 0.20 0.16 0.14 0.12 0.08 0.07 0.06 0.05 0.06 0.05 0.06 0.06 0.06 0.08 0.09 0.10 0.13 0.13 0.06
0.02 0.03 0.03 0.03 0.03 0.03 0.04 0.05 0.06 0.06 0.09 0.11 0.16 0.21 0.24 0.30 0.35 0.34 0.28 0.22 0.19 0.18 0.17 0.17 0.14 0.10 0.07 0.06 0.04 0.04 0.04 0.03 0.03 0.03 0.04 0.04 0.04 0.06 0.06 0.07 0.10 0.13 0.13
0.07 0.06 0.06 0.05 0.04 0.05 0.06 0.06 0.06 0.06 0.07 0.08 0.09 0.11 0.13 0.16 0.19 0.20 0.18 0.17 0.17 0.17 0.16 0.13 0.09 0.06 0.04 0.03 0.03 0.03 0.02 0.01 0.01 0.01 0.02 0.03 0.03 0.04 0.05 0.07 0.08 0.11 0.12
0.15 0.13 0.10 0.09 0.07 0.06 0.06 0.06 0.07 0.07 0.07 0.06 0.06 0.07 0.09 0.11 0.14 0.15 0.15 0.16 0.16 0.16 0.15 0.10 0.06 0.04 0.02 0.02 0.01 0.01 0.01 0.01 0.01 0.01 0.02 0.02 0.03 0.04 0.06 0.08 0.10 0.13 0.13
0.28 0.23 0.17 0.15 0.14 0.10 0.08 0.09 0.09 0.07 0.06 0.06 0.06 0.07 0.07 0.08 0.09 0.09 0.10 0.11 0.12 0.12 0.10 0.06 0.05 0.04 0.02 0.01 0.01 0.01 0.01 0.00 0.01 0.01 0.01 0.01 0.02 0.05 0.08 0.11 0.13 0.16 0.16
0.35 0.28 0.27 0.27 0.26 0.21 0.19 0.21 0.20 0.15 0.12 0.11 0.10 0.08 0.08 0.09 0.11 0.11 0.11 0.11 0.10 0.09 0.06 0.05 0.04 0.03 0.02 0.01 0.01 0.01 0.00 0.01 0.01 0.00 0.00 0.01 0.02 0.04 0.07 0.10 0.12 0.15 0.19
0.32 0.27 0.30 0.30 0.28 0.28 0.28 0.28 0.30 0.24 0.19 0.15 0.12 0.10 0.11 0.12 0.12 0.12 0.13 0.11 0.11 0.10 0.06 0.07 0.06 0.03 0.02 0.01 0.01 0.00 0.00 0.00 0.00 0.00 0.00 0.01 0.01 0.03 0.05 0.07 0.09 0.12 0.17
0.24 0.20 0.16 0.16 0.17 0.19 0.21 0.21 0.24 0.26 0.24 0.22 0.20 0.18 0.16 0.14 0.14 0.14 0.13 0.12 0.11 0.09 0.06 0.08 0.08 0.06 0.05 0.06 0.05 0.03 0.02 0.01 0.01 0.01 0.00 0.00 0.00 0.02 0.04 0.07 0.10 0.12 0.14
0.08 0.06 0.05 0.04 0.06 0.08 0.10 0.10 0.12 0.14 0.17 0.18 0.15 0.15 0.14 0.13 0.13 0.13 0.11 0.11 0.10 0.08 0.07 0.08 0.09 0.10 0.12 0.14 0.13 0.07 0.04 0.03 0.02 0.01 0.01 0.01 0.01 0.01 0.02 0.03 0.06 0.09 0.13
0.03 0.01 0.01 0.00 0.01 0.01 0.01 0.02 0.03 0.04 0.05 0.05 0.05 0.04 0.05 0.07 0.07 0.06 0.05 0.05 0.05 0.05 0.06 0.07 0.09 0.12 0.12 0.17 0.14 0.07 0.04 0.03 0.03 0.03 0.02 0.02 0.02 0.01 0.01 0.00 0.01 0.03 0.07
0.01 0.00 0.00 0.00 0.00 0.00 0.00 0.00 0.00 0.00 0.00 0.01 0.01 0.01 0.01 0.01 0.01 0.01 0.01 0.02 0.02 0.02 0.02 0.02 0.03 0.06 0.07 0.06 0.03 0.02 0.02 0.04 0.04 0.05 0.06 0.05 0.04 0.02 0.01 0.02 0.01 0.02 0.01
0.00 0.00 0.00 0.00 0.00 0.00 0.00 0.00 0.00 0.00 0.00 0.00 0.00 0.00 0.00 0.01 0.01 0.01 0.01 0.01 0.01 0.00 0.00 0.00 0.00 0.01 0.01 0.01 0.00 0.00 0.02 0.06 0.06 0.05 0.05 0.07 0.07 0.07 0.07 0.05 0.05 0.05 0.04
0.00 0.00 0.00 0.00 0.00 0.00 0.00 0.00 0.00 0.00 0.00 0.00 0.00 0.00 0.00 0.00 0.00 0.00 0.00 0.00 0.00 0.00 0.00 0.00 0.00 0.00 0.00 0.00 0.00 0.01 0.04 0.07 0.08 0.06 0.07 0.10 0.14 0.22 0.16 0.08 0.08 0.10 0.09
0.00 0.00 0.00 0.00 0.00 0.00 0.00 0.00 0.00 0.00 0.00 0.00 0.00 0.00 0.00 0.00 0.01 0.01 0.00 0.00 0.00 0.00 0.00 0.00 0.00 0.00 0.00 0.00 0.00 0.01 0.04 0.07 0.10 0.12 0.14 0.18 0.14 0.19 0.13 0.06 0.10 0.16 0.15
0.00 0.00 0.00 0.00 0.00 0.00 0.00 0.00 0.00 0.00 0.00 0.00 0.00 0.00 0.00 0.00 0.01 0.02 0.01 0.00 0.00 0.00 0.00 0.00 0.00 0.00 0.00 0.00 0.00 0.00 0.03 0.05 0.10 0.14 0.16 0.12 0.10 0.06 0.05 0.05 0.08 0.15 0.11
0.00 0.00 0.00 0.00 0.00 0.00 0.00 0.00 0.00 0.00 0.00 0.00 0.00 0.00 0.00 0.01 0.01 0.02 0.01 0.00 0.00 0.01 0.01 0.01 0.01 0.01 0.01 0.00 0.00 0.00 0.00 0.02 0.05 0.08 0.09 0.08 0.06 0.03 0.03 0.03 0.06 0.09 0.05
0.00 0.00 0.00 0.00 0.00 0.00 0.00 0.00 0.00 0.00 0.00 0.00 0.01 0.00 0.00 0.01 0.00 0.01 0.00 0.01 0.01 0.01 0.01 0.01 0.01 0.01 0.02 0.01 0.00 0.01 0.00 0.00 0.01 0.01 0.01 0.01 0.01 0.01 0.02 0.03 0.04 0.04 0.05
0.00 0.00 0.00 0.00 0.00 0.00 0.00 0.00 0.00 0.00 0.00 0.00 0.00 0.00 0.00 0.01 0.00 0.00 0.00 0.00 0.01 0.00 0.01 0.01 0.01 0.02 0.03 0.01 0.00 0.01 0.02 0.02 0.02 0.02 0.01 0.00 0.00 0.01 0.04 0.04 0.04 0.05 0.07
0.00 0.00 0.00 0.00 0.00 0.00 0.00 0.00 0.00 0.00 0.00 0.00 0.00 0.00 0.00 0.01 0.01 0.00 0.00 0.00 0.00 0.00 0.00 0.00 0.01 0.01 0.01 0.00 0.00 0.00 0.01 0.01 0.01 0.04 0.07 0.08 0.07 0.07 0.06 0.07 0.09 0.09 0.09
0.00 0.00 0.00 0.00 0.00 0.00 0.00 0.00 0.00 0.00 0.00 0.00 0.00 0.00 0.00 0.00 0.00 0.01 0.01 0.00 0.00 0.00 0.00 0.00 0.00 0.00 0.00 0.00 0.00 0.00 0.00 0.01 0.03 0.07 0.10 0.12 0.15 0.16 0.15 0.15 0.15 0.14 0.13
MSLP
1010.51 1010.24 1009.97 1009.67 1009.35 1008.97 1008.57 1008.19 1007.87 1007.67 1007.63 1007.78 1008.12 1008.61 1009.19 1009.81 1010.40 1010.91 1011.32 1011.63 1011.89 1012.12 1012.38 1012.71 1013.10 1013.57 1014.08 1014.60 1015.09 1015.52 1015.86 1016.12 1016.29 1016.41 1016.47 1016.49 1016.48 1016.43 1016.34 1016.21 1016.06 1015.91 1015.79
1011.20 1010.98 1010.76 1010.50 1010.16 1009.75 1009.27 1008.77 1008.30 1007.94 1007.74 1007.73 1007.94 1008.33 1008.86 1009.46 1010.07 1010.62 1011.10 1011.50 1011.83 1012.13 1012.43 1012.78 1013.18 1013.62 1014.11 1014.59 1015.05 1015.46 1015.80 1016.07 1016.28 1016.44 1016.55 1016.61 1016.63 1016.59 1016.49 1016.34 1016.15 1015.97 1015.81
1011.85 1011.69 1011.52 1011.30 1010.99 1010.57 1010.06 1009.48 1008.92 1008.43 1008.10 1007.96 1008.04 1008.33 1008.79 1009.35 1009.95 1010.52 1011.05 1011.50 1011.88 1012.23 1012.56 1012.90 1013.27 1013.67 1014.09 1014.51 1014.91 1015.27 1015.59 1015.87 1016.11 1016.32 1016.49 1016.63 1016.71 1016.72 1016.66 1016.53 1016.35 1016.15 1015.97
1012.48 1012.35 1012.23 1012.06 1011.79 1011.40 1010.89 1010.30 1009.69 1009.13 1008.71 1008.47 1008.45 1008.65 1009.02 1009.52 1010.09 1010.66 1011.19 1011.67 1012.07 1012.43 1012.75 1013.07 1013.39 1013.71 1014.04 1014.37 1014.69 1014.99 1015.27 1015.55 1015.82 1016.08 1016.33 1016.55 1016.72 1016.81 1016.82 1016.74 1016.59 1016.41 1016.22
1013.12 1013.00 1012.91 1012.78 1012.56 1012.21 1011.75 1011.18 1010.57 1010.00 1009.54 1009.24 1009.15 1009.27 1009.56 1010.00 1010.51 1011.03 1011.53 1011.98 1012.37 1012.70 1012.99 1013.25 1013.50 1013.73 1013.97 1014.19 1014.42 1014.65 1014.90 1015.16 1015.46 1015.77 1016.09 1016.40 1016.66 1016.85 1016.94 1016.93 1016.83 1016.67 1016.48
1013.82 1013.68 1013.58 1013.47 1013.29 1013.00 1012.59 1012.08 1011.52 1010.98 1010.52 1010.21 1010.08 1010.13 1010.36 1010.71 1011.14 1011.59 1012.02 1012.41 1012.74 1013.01 1013.23 1013.42 1013.58 1013.72 1013.86 1013.99 1014.14 1014.30 1014.51 1014.76 1015.07 1015.42 1015.80 1016.19 1016.53 1016.81 1016.98 1017.04 1016.99 1016.86 1016.67
1014.61 1014.41 1014.28 1014.16 1013.99 1013.74 1013.39 1012.95 1012.46 1011.98 1011.56 1011.27 1011.12 1011.13 1011.29 1011.55 1011.88 1012.23 1012.57 1012.86 1013.10 1013.28 1013.42 1013.53 1013.60 1013.66 1013.72 1013.77 1013.85 1013.97 1014.13 1014.37 1014.68 1015.06 1015.48 1015.91 1016.32 1016.67 1016.90 1017.02 1017.01 1016.90 1016.72
1015.48 1015.19 1014.99 1014.83 1014.66 1014.43 1014.12 1013.74 1013.32 1012.91 1012.55 1012.29 1012.15 1012.13 1012.23 1012.40 1012.63 1012.86 1013.07 1013.25 1013.38 1013.47 1013.52 1013.54 1013.55 1013.54 1013.54 1013.54 1013.58 1013.65 1013.79 1014.01 1014.31 1014.69 1015.13 1015.59 1016.03 1016.41 1016.68 1016.83 1016.86 1016.77 1016.61
1016.37 1015.99 1015.70 1015.47 1015.26 1015.01 1014.73 1014.39 1014.04 1013.70 1013.40 1013.18 1013.05 1013.01 1013.05 1013.14 1013.26 1013.36 1013.45 1013.51 1013.52 1013.52 1013.49 1013.44 1013.40 1013.36 1013.32 1013.30 1013.31 1013.37 1013.49 1013.69 1013.97 1014.34 1014.76 1015.21 1015.65 1016.03 1016.32 1016.49 1016.54 1016.47 1016.32
1017.22 1016.73 1016.35 1016.04 1015.76 1015.48 1015.19 1014.88 1014.57 1014.28 1014.04 1013.85 1013.74 1013.68 1013.67 1013.68 1013.70 1013.69 1013.66 1013.60 1013.52 1013.43 1013.34 1013.25 1013.18 1013.12 1013.08 1013.06 1013.07 1013.12 1013.22 1013.40 1013.65 1013.98 1014.37 1014.79 1015.20 1015.57 1015.85 1016.03 1016.10 1016.05 1015.93
1017.94 1017.36 1016.88 1016.48 1016.14 1015.81 1015.50 1015.20 1014.91 1014.66 1014.45 1014.30 1014.19 1014.12 1014.07 1014.01 1013.94 1013.84 1013.71 1013.56 1013.40 1013.25 1013.11 1013.01 1012.94 1012.88 1012.86 1012.85 1012.86 1012.91 1013.00 1013.15 1013.36 1013.64 1013.98 1014.34 1014.71 1015.05 1015.32 1015.50 1015.59 1015.58 1015.49
1018.46 1017.82 1017.27 1016.80 1016.39 1016.02 1015.68 1015.37 1015.10 1014.87 1014.69 1014.55 1014.45 1014.37 1014.28 1014.18 1014.04 1013.86 1013.66 1013.44 1013.23 1013.05 1012.90 1012.79 1012.73 1012.70 1012.69 1012.70 1012.72 1012.76 1012.83 1012.94 1013.10 1013.32 1013.60 1013.91 1014.23 1014.53 1014.79 1014.98 1015.08 1015.11 1015.08
1018.77 1018.09 1017.50 1016.99 1016.53 1016.13 1015.77 1015.45 1015.19 1014.98 1014.82 1014.70 1014.60 1014.51 1014.40 1014.26 1014.07 1013.85 1013.60 1013.34 1013.11 1012.91 1012.76 1012.67 1012.63 1012.62 1012.63 1012.64 1012.66 1012.69 1012.72 1012.79 1012.89 1013.05 1013.26 1013.51 1013.79 1014.06 1014.30 1014.50 1014.63 1014.71 1014.73
1018.87 1018.19 1017.60 1017.07 1016.61 1016.19 1015.83 1015.52 1015.27 1015.08 1014.94 1014.83 1014.74 1014.64 1014.51 1014.35 1014.14 1013.89 1013.62 1013.35 1013.11 1012.92 1012.79 1012.71 1012.69 1012.69 1012.71 1012.72 1012.72 1012.71 1012.71 1012.72 1012.76 1012.85 1013.00 1013.19 1013.42 1013.67 1013.90 1014.11 1014.27 1014.39 1014.47
1018.81 1018.18 1017.62 1017.11 1016.66 1016.26 1015.91 1015.63 1015.40 1015.23 1015.11 1015.02 1014.93 1014.83 1014.70 1014.53 1014.31 1014.05 1013.78 1013.51 1013.29 1013.11 1013.00 1012.94 1012.93 1012.94 1012.95 1012.94 1012.91 1012.86 1012.79 1012.74 1012.71 1012.74 1012.82 1012.96 1013.15 1013.37 1013.59 1013.81 1013.99 1014.15 1014.27
1018.67 1018.11 1017.60 1017.14 1016.73 1016.36 1016.05 1015.80 1015.60 1015.46 1015.36 1015.29 1015.22 1015.13 1015.00 1014.82 1014.60 1014.35 1014.10 1013.85 1013.64 1013.49 1013.39 1013.35 1013.34 1013.34 1013.33 1013.29 1013.21 1013.11 1012.98 1012.86 1012.76 1012.72 1012.74 1012.83 1012.98 1013.17 1013.39 1013.60 1013.80 1013.98 1014.13
1018.53 1018.04 1017.60 1017.20 1016.84 1016.52 1016.25 1016.04 1015.88 1015.77 1015.70 1015.65 1015.59 1015.51 1015.39 1015.22 1015.02 1014.79 1014.55 1014.33 1014.15 1014.02 1013.94 1013.90 1013.88 1013.86 1013.82 1013.74 1013.61 1013.44 1013.25 1013.06 1012.90 1012.80 1012.77 1012.81 1012.92 1013.08 1013.27 1013.47 1013.67 1013.85 1014.02
1018.42 1018.02 1017.64 1017.29 1016.98 1016.71 1016.48 1016.30 1016.18 1016.10 1016.06 1016.03 1015.99 1015.92 1015.82 1015.67 1015.49 1015.29 1015.08 1014.89 1014.74 1014.63 1014.56 1014.52 1014.49 1014.44 1014.37 1014.24 1014.05 1013.83 1013.58 1013.33 1013.12 1012.96 1012.88 1012.88 1012.95 1013.07 1013.24 1013.42 1013.60 1013.77 1013.93
1018.40 1018.05 1017.72 1017.42 1017.14 1016.89 1016.69 1016.55 1016.45 1016.40 1016.37 1016.36 1016.35 1016.30 1016.23 1016.11 1015.96 1015.79 1015.62 1015.46 1015.34 1015.25 1015.19 1015.15 1015.10 1015.03 1014.91 1014.74 1014.51 1014.24 1013.94 1013.65 1013.39 1013.19 1013.07 1013.02 1013.05 1013.14 1013.28 1013.43 1013.58 1013.73 1013.87
1018.45 1018.15 1017.84 1017.55 1017.28 1017.05 1016.86 1016.72 1016.63 1016.59 1016.59 1016.60 1016.60 1016.59 1016.55 1016.47 1016.36 1016.23 1016.11 1015.99 1015.90 1015.83 1015.78 1015.73 1015.67 1015.57 1015.42 1015.21 1014.95 1014.64 1014.30 1013.98 1013.68 1013.45 1013.30 1013.22 1013.22 1013.28 1013.38 1013.50 1013.63 1013.75 1013.86
1018.58 1018.28 1017.98 1017.68 1017.40 1017.15 1016.95 1016.80 1016.71 1016.68 1016.68 1016.71 1016.74 1016.76 1016.76 1016.73 1016.68 1016.61 1016.53 1016.46 1016.40 1016.35 1016.31 1016.26 1016.18 1016.06 1015.88 1015.64 1015.35 1015.01 1014.65 1014.31 1013.99 1013.74 1013.56 1013.46 1013.44 1013.47 1013.54 1013.64 1013.74 1013.84 1013.93
1018.76 1018.45 1018.13 1017.80 1017.49 1017.20 1016.97 1016.80 1016.70 1016.66 1016.67 1016.71 1016.77 1016.83 1016.88 1016.90 1016.91 1016.90 1016.88 1016.86 1016.84 1016.82 1016.78 1016.73 1016.63 1016.49 1016.29 1016.03 1015.71 1015.36 1014.99 1014.63 1014.31 1014.05 1013.86 1013.74 1013.70 1013.71 1013.76 1013.84 1013.93 1014.02 1014.11
1018.96 1018.63 1018.28 1017.91 1017.56 1017.24 1016.97 1016.77 1016.64 1016.59 1016.59 1016.65 1016.73 1016.83 1016.93 1017.02 1017.10 1017.16 1017.20 1017.23 1017.25 1017.25 1017.22 1017.16 1017.06 1016.90 1016.68 1016.40 1016.07 1015.71 1015.33 1014.97 1014.65 1014.38 1014.18 1014.06 1014.00 1014.01 1014.05 1014.12 1014.21 1014.30 1014.39
1019.16 1018.82 1018.44 1018.04 1017.65 1017.29 1016.99 1016.75 1016.59 1016.52 1016.52 1016.58 1016.69 1016.83 1016.98 1017.13 1017.27 1017.40 1017.50 1017.58 1017.64 1017.66 1017.65 1017.59 1017.47 1017.30 1017.07 1016.78 1016.44 1016.08 1015.70 1015.35 1015.03 1014.76 1014.56 1014.43 1014.37 1014.37 1014.41 1014.48 1014.57 1014.67 1014.76
1019.34 1018.99 1018.60 1018.19 1017.78 1017.39 1017.06 1016.79 1016.61 1016.52 1016.51 1016.57 1016.70 1016.86 1017.06 1017.26 1017.46 1017.64 1017.80 1017.93 1018.02 1018.07 1018.07 1018.01 1017.89 1017.71 1017.47 1017.18 1016.85 1016.49 1016.13 1015.79 1015.47 1015.22 1015.02 1014.89 1014.83 1014.82 1014.86 1014.93 1015.02 1015.12 1015.23
1019.48 1019.15 1018.77 1018.37 1017.95 1017.56 1017.21 1016.93 1016.73 1016.61 1016.59 1016.64 1016.77 1016.95 1017.17 1017.41 1017.66 1017.89 1018.09 1018.26 1018.38 1018.45 1018.47 1018.42 1018.30 1018.13 1017.90 1017.62 1017.30 1016.96 1016.63 1016.30 1016.02 1015.77 1015.59 1015.46 1015.39 1015.38 1015.41 1015.47 1015.56 1015.66 1015.77
Thickness
5773 5779 5784 5789 5794 5798 5801 5804 5806 5809 5808 5803 5797 5791 5786 5784 5783 5781 5779 5775 5772 5769 5765 5761 5757 5755 5751 5749 5749 5746 5743 5741 5742 5738 5736 5740 5743 5743 5743 5741 5740 5740 5739
5754 5760 5766 5771 5775 5779 5785 5791 5795 5799 5802 5802 5798 5792 5785 5780 5778 5775 5772 5769 5765 5762 5760 5755 5750 5747 5743 5741 5740 5738 5734 5734 5735 5729 5723 5720 5724 5732 5738 5737 5734 5732 5733
5738 5743 5749 5754 5759 5762 5768 5774 5780 5787 5792 5795 5794 5788 5781 5773 5769 5765 5762 5761 5759 5756 5752 5749 5744 5740 5737 5733 5732 5731 5727 5724 5727 5728 5721 5712 5709 5717 5725 5730 5729 5727 5727
5726 5730 5735 5740 5745 5749 5755 5760 5766 5773 5780 5785 5783 5778 5770 5761 5759 5756 5753 5752 5751 5748 5745 5741 5739 5735 5731 5729 5727 5728 5726 5723 5720 5722 5723 5721 5717 5709 5707 5717 5722 5723 5721
5715 5719 5724 5728 5733 5737 5741 5746 5752 5758 5764 5770 5771 5768 5761 5754 5749 5745 5741 5739 5739 5738 5736 5733 5731 5728 5725 5723 5723 5723 5723 5721 5718 5716 5716 5716 5714 5712 5703 5699 5706 5712 5716
5704 5709 5713 5716 5719 5724 5728 5733 5738 5742 5747 5751 5752 5750 5745 5741 5735 5732 5727 5725 5725 5724 5724 5722 5720 5719 5718 5718 5717 5718 5718 5717 5716 5714 5713 5710 5707 5704 5701 5695 5695 5697 5705
5689 5693 5697 5700 5704 5710 5715 5719 5723 5726 5730 5732 5732 5731 5729 5727 5723 5720 5718 5715 5714 5713 5713 5712 5711 5710 5711 5711 5711 5711 5711 5711 5710 5709 5709 5708 5706 5704 5700 5694 5691 5691 5696
5674 5678 5681 5685 5690 5695 5700 5704 5707 5709 5712 5714 5713 5713 5712 5711 5710 5708 5707 5705 5705 5705 5705 5704 5702 5702 5703 5703 5703 5703 5703 5705 5705 5705 5704 5703 5702 5700 5697 5692 5687 5683 5684
5659 5664 5668 5672 5676 5681 5685 5689 5692 5693 5695 5697 5697 5696 5696 5696 5696 5696 5696 5696 5695 5695 5694 5694 5694 5694 5694 5695 5695 5695 5696 5698 5698 5699 5699 5697 5697 5695 5693 5691 5687 5680 5675
5647 5653 5656 5660 5665 5669 5672 5676 5678 5679 5680 5683 5683 5684 5684 5684 5684 5685 5685 5685 5686 5686 5685 5684 5685 5686 5688 5689 5690 5690 5691 5691 5692 5692 5691 5691 5691 5689 5689 5687 5685 5682 5677
5636 5642 5646 5651 5656 5660 5663 5665 5667 5669 5670 5671 5672 5673 5674 5675 5676 5676 5676 5677 5678 5678 5679 5680 5682 5683 5685 5686 5686 5685 5686 5686 5687 5688 5687 5686 5687 5684 5684 5683 5681 5680 5677
5630 5635 5640 5644 5649 5652 5655 5657 5658 5660 5662 5663 5664 5665 5666 5668 5668 5670 5671 5673 5673 5675 5677 5679 5682 5684 5685 5686 5685 5682 5683 5682 5682 5683 5683 5683 5683 5681 5680 5679 5677 5677 5676
5627 5633 5637 5641 5644 5647 5650 5652 5654 5656 5658 5659 5660 5661 5662 5663 5665 5667 5669 5672 5673 5675 5678 5680 5682 5684 5685 5685 5684 5683 5682 5681 5680 5680 5679 5679 5679 5676 5676 5675 5674 5674 5675
5629 5633 5637 5642 5645 5647 5649 5650 5652 5654 5656 5657 5658 5659 5660 5662 5664 5666 5668 5669 5671 5673 5676 5679 5680 5682 5683 5682 5681 5680 5679 5679 5679 5679 5678 5677 5676 5674 5673 5672 5671 5671 5670
5634 5638 5641 5644 5647 5648 5649 5651 5652 5654 5655 5656 5656 5657 5659 5660 5662 5663 5665 5667 5668 5671 5672 5674 5675 5675 5674 5670 5669 5670 5672 5673 5674 5675 5676 5675 5673 5671 5669 5668 5666 5666 5665
5638 5642 5644 5647 5649 5650 5650 5652 5653 5654 5655 5655 5655 5656 5657 5658 5659 5660 5661 5662 5663 5663 5664 5664 5664 5662 5659 5659 5659 5660 5662 5665 5667 5668 5670 5669 5668 5666 5664 5663 5662 5661 5660
5640 5644 5646 5649 5651 5653 5653 5652 5653 5653 5653 5652 5652 5652 5653 5653 5653 5654 5655 5655 5654 5654 5653 5653 5652 5651 5648 5649 5650 5652 5653 5656 5659 5660 5662 5664 5665 5663 5660 5658 5658 5657 5656
5642 5645 5648 5650 5653 5656 5656 5655 5654 5652 5650 5650 5649 5649 5648 5648 5648 5648 5647 5646 5646 5644 5643 5641 5641 5640 5639 5639 5641 5644 5648 5650 5652 5655 5657 5657 5656 5656 5655 5654 5652 5653 5652
5647 5649 5653 5654 5655 5656 5657 5656 5654 5651 5648 5647 5647 5646 5645 5644 5643 5642 5641 5639 5638 5636 5633 5631 5631 5630 5629 5630 5633 5636 5640 5643 5645 5648 5648 5648 5647 5648 5648 5647 5647 5647 5646
5652 5653 5656 5657 5656 5658 5659 5656 5653 5650 5647 5646 5646 5646 5644 5642 5639 5637 5636 5634 5632 5629 5627 5624 5623 5622 5621 5622 5623 5625 5628 5630 5633 5637 5638 5638 5638 5638 5639 5639 5640 5639 5640
5656 5657 5658 5657 5658 5661 5661 5657 5654 5651 5649 5649 5647 5646 5644 5642 5638 5635 5632 5629 5627 5624 5621 5619 5617 5615 5614 5614 5614 5616 5617 5618 5621 5625 5626 5625 5627 5628 5630 5631 5632 5633 5635
5659 5659 5659 5660 5663 5665 5663 5659 5656 5656 5655 5653 5650 5648 5645 5642 5638 5633 5629 5625 5621 5617 5614 5611 5609 5607 5607 5606 5606 5608 5609 5610 5611 5613 5614 5615 5618 5620 5622 5624 5626 5628 5630
5663 5663 5663 5663 5666 5668 5667 5663 5663 5663 5660 5657 5653 5650 5647 5641 5636 5630 5625 5621 5616 5611 5607 5603 5600 5599 5598 5598 5599 5601 5603 5604 5604 5605 5606 5608 5611 5613 5616 5618 5620 5622 5625
5667 5667 5667 5665 5667 5671 5672 5670 5669 5668 5665 5660 5656 5652 5647 5641 5635 5629 5623 5617 5611 5606 5602 5598 5595 5594 5593 5592 5593 5594 5596 5598 5599 5599 5601 5602 5604 5605 5608 5612 5615 5618 5621
5670 5670 5668 5667 5670 5674 5674 5673 5671 5670 5667 5664 5659 5654 5648 5642 5634 5626 5618 5614 5607 5602 5598 5595 5593 5591 5590 5588 5588 5588 5589 5590 5592 5592 5594 5596 5597 5599 5602 5606 5610 5613 5616
5671 5671 5671 5671 5673 5674 5674 5673 5672 5671 5668 5664 5659 5654 5649 5643 5637 5628 5620 5612 5609 5604 5600 5596 5594 5592 5589 5589 5589 5588 5588 5588 5589 5588 5587 5588 5589 5592 5595 5598 5602 5607 5610